This is the latest recevied weather packets stored in our database for station/object N7ZAP. If no packets are shown the sender has not sent any weather packets the latest 10 day(s).
| Time | Temp. | Humidity | Pressure | Rain* | Wind** | Luminosity | Snow |
|---|---|---|---|---|---|---|---|
| 1776958364 | 18.89° C | 20% | 1014.9 hPa | 0 mm | - | - | - |
| 1776958060 | 17.78° C | 20% | 1014.8 hPa | 0 mm | - | - | - |
| 1776957755 | 17.78° C | 21% | 1015.1 hPa | 0 mm | - | - | - |
| 1776957451 | 17.78° C | 21% | 1015.2 hPa | 0 mm | - | - | - |
| 1776957147 | 18.33° C | 21% | 1014.9 hPa | 0 mm | - | - | - |
| 1776956846 | 17.78° C | 23% | 1015.2 hPa | 0 mm | - | - | - |
| 1776956540 | 17.78° C | 22% | 1014.9 hPa | 0 mm | - | - | - |
| 1776956240 | 17.78° C | 22% | 1015.2 hPa | 0 mm | - | - | - |
| 1776955935 | 17.78° C | 23% | 1015.1 hPa | 0 mm | - | - | - |
| 1776955631 | 17.22° C | 23% | 1015.2 hPa | 0 mm | - | - | - |
| 1776955329 | 17.22° C | 24% | 1015.3 hPa | 0 mm | - | - | - |
| 1776955028 | 16.67° C | 24% | 1015.1 hPa | 0 mm | - | - | - |
| 1776954726 | 16.67° C | 23% | 1015.2 hPa | 0 mm | - | - | - |
| 1776954424 | 16.11° C | 25% | 1015.1 hPa | 0 mm | - | - | - |
| 1776954120 | 16.11° C | 24% | 1015.1 hPa | 0 mm | - | - | - |
| 1776953814 | 16.11° C | 26% | 1014.9 hPa | 0 mm | - | - | - |
| 1776953510 | 15.56° C | 26% | 1014.9 hPa | 0 mm | - | - | - |
| 1776953210 | 15.56° C | 26% | 1015.1 hPa | 0 mm | - | - | - |
| 1776952909 | 15.56° C | 26% | 1015.1 hPa | 0 mm | - | - | - |
| 1776952607 | 15° C | 26% | 1014.8 hPa | 0 mm | - | - | - |
| 1776952302 | 14.44° C | 27% | 1014.9 hPa | 0 mm | - | - | - |
| 1776951999 | 14.44° C | 27% | 1015.1 hPa | 0 mm | - | - | - |
| 1776951696 | 13.89° C | 28% | 1014.7 hPa | 0 mm | - | - | - |
| 1776951392 | 13.89° C | 29% | 1014.8 hPa | 0 mm | - | - | - |
| 1776951089 | 13.89° C | 28% | 1014.7 hPa | 0 mm | - | - | - |
* Rain latest hour (hover to see other rain measurements)
** Current wind speed in m/s (hover to see current wind gust speed)